Wind_Speed
27 30 31 32 33 29 29 29 30 31 33 33 32 33 35 37 38 41 43 45 48 51 54 57 60 62 65 67 68 68 66 65 66 66 64 63 63 65 66 65 64 62 59
28 27 29 32 32 31 31 31 31 32 34 35 35 36 38 40 43 45 48 51 55 59 63 67 68 67 61 57 59 59 61 63 67 67 67 64 66 66 68 67 66 65 64
29 26 29 34 32 32 33 32 33 34 35 37 38 39 41 44 47 50 52 56 59 63 68 72 72 66 60 58 60 62 65 66 67 72 68 67 67 66 68 70 67 66 64
35 31 35 36 34 33 34 35 35 37 38 39 40 42 45 48 50 53 56 58 61 68 72 72 69 63 61 61 61 61 63 67 70 72 73 73 71 70 69 69 68 65 63
34 36 37 35 36 36 35 36 37 38 40 41 44 46 49 51 52 54 56 60 65 65 66 62 62 61 60 54 54 54 55 57 60 63 65 69 71 72 72 69 65 63 59
38 37 38 37 37 37 38 39 39 40 42 44 47 49 52 52 52 53 56 59 62 61 60 58 59 58 54 55 53 52 52 54 56 56 58 64 67 68 68 70 67 61 50
39 39 39 39 38 38 39 40 41 42 43 45 49 50 51 51 52 54 55 57 57 58 58 59 59 56 55 56 56 58 57 54 53 53 51 54 56 57 58 57 58 60 53
40 43 43 43 42 41 43 44 44 45 45 47 50 50 50 51 53 55 55 57 55 57 59 57 55 54 52 53 55 54 54 54 51 51 48 49 50 49 54 53 48 51 52
42 45 45 46 46 47 46 47 48 48 47 49 50 49 50 52 54 56 59 58 55 58 60 54 49 48 46 44 47 50 47 47 49 46 45 42 49 47 39 41 37 39 41
47 49 50 50 53 52 50 49 49 48 47 49 49 47 49 54 56 60 62 59 55 56 52 47 44 43 45 44 46 46 44 43 43 44 36 35 37 42 46 45 38 32 34
51 51 54 51 52 51 50 50 49 47 48 49 47 49 54 58 61 65 62 59 54 55 57 53 50 46 48 47 46 43 40 38 38 35 33 36 30 31 31 31 29 29 29
52 51 52 53 50 48 48 47 47 48 50 44 48 52 57 60 63 67 61 58 50 51 53 50 49 47 46 42 42 39 34 31 30 25 28 28 28 25 26 28 29 29 28
49 47 45 50 44 43 43 48 47 48 45 46 51 56 57 61 63 59 55 51 48 47 47 45 41 39 37 34 33 29 24 21 20 19 24 20 18 22 25 27 26 29 31
44 43 38 42 42 44 48 45 43 44 49 50 54 54 57 56 56 51 48 46 43 44 44 43 39 34 30 25 21 19 16 11 11 10 13 15 12 18 25 29 30 34 34
38 31 36 40 44 40 44 43 50 50 53 53 58 54 52 51 50 45 42 40 42 42 42 41 36 27 19 15 16 14 12 10 9 8 7 8 11 14 20 27 28 32 35
46 53 52 47 48 46 41 43 49 53 54 52 47 47 45 47 48 41 39 41 38 37 37 34 23 14 12 14 14 10 9 10 10 9 8 9 9 11 15 19 23 28 31
45 50 51 50 57 48 44 47 49 42 40 42 41 43 48 44 35 37 41 34 30 32 31 18 12 13 16 10 8 7 9 9 9 9 9 10 10 10 12 15 17 21 24
57 50 43 44 41 43 42 42 40 42 42 41 42 46 45 33 36 40 34 26 26 24 21 15 15 13 9 9 10 11 11 11 11 9 9 8 9 10 11 12 13 15 18
56 53 50 38 36 38 40 42 46 45 41 40 42 46 37 30 36 35 27 25 23 21 17 17 10 9 9 7 9 10 12 13 13 13 13 13 13 10 9 10 12 14 16
37 36 38 41 41 42 43 47 50 48 39 41 43 39 30 31 36 27 22 22 19 16 14 12 12 7 8 10 10 11 11 12 12 13 12 12 12 11 11 12 12 14 16
44 45 45 45 46 43 43 46 45 38 38 42 37 31 30 36 25 22 19 17 15 13 10 8 8 9 10 10 10 11 11 12 12 12 12 13 13 13 14 14 14 16 17
48 46 44 44 43 43 42 40 36 37 40 38 30 30 36 23 22 18 17 14 13 7 7 9 10 11 11 11 12 12 12 11 10 9 9 10 12 14 15 17 19 21 23
42 43 43 42 40 39 37 34 34 34 35 31 31 40 24 22 19 15 16 13 13 12 11 12 12 12 12 13 14 15 16 15 15 15 15 17 19 21 23 26 28 30 32
32 33 35 32 34 34 34 34 32 33 31 32 33 23 22 21 17 16 15 14 16 14 14 14 14 14 15 16 18 19 19 21 21 22 22 24 26 28 30 31 32 33 34
36 36 35 32 34 34 34 32 32 31 33 29 23 23 22 19 18 18 17 18 18 18 18 17 17 17 18 19 20 21 23 24 25 26 27 29 30 31 32 34 36 39 42
36 39 40 38 39 35 33 32 31 32 29 24 24 24 22 20 20 20 21 20 21 22 21 21 21 21 22 23 25 26 26 27 29 30 31 32 34 36 37 39 42 45 48
Wind_Direction
276 278 279 276 272 275 276 276 277 277 278 279 280 281 284 285 288 290 292 290 288 287 286 284 283 282 279 279 276 272 271 271 269 269 269 267 267 267 268 269 270 270 269
279 282 280 277 279 280 277 275 277 278 281 284 285 286 288 291 293 293 293 292 292 293 295 297 296 295 291 281 275 268 268 268 268 264 264 264 265 264 265 266 267 267 269
288 281 275 273 276 275 275 277 278 281 282 282 284 288 290 292 293 293 293 295 296 297 296 294 294 295 289 281 273 267 265 263 261 264 261 258 257 258 261 263 262 263 265
290 288 283 282 277 273 275 275 277 278 279 283 287 289 291 293 293 294 294 294 296 295 293 293 295 292 285 279 276 273 269 267 265 265 264 263 257 253 254 258 262 260 262
280 278 277 273 270 272 275 277 278 280 282 285 289 291 293 294 293 295 296 296 298 296 296 295 292 288 285 283 282 280 275 271 266 265 266 266 264 262 256 254 262 264 266
281 277 275 272 272 275 280 282 283 284 284 287 289 291 292 291 293 296 299 301 301 303 299 293 289 286 284 285 285 284 283 277 272 268 271 268 266 265 262 261 261 264 264
280 278 276 278 281 282 283 282 282 283 285 288 290 289 289 293 296 300 302 301 301 303 297 291 288 287 286 286 286 286 283 281 278 273 275 268 264 262 263 262 262 260 259
277 275 279 282 285 283 284 283 284 285 286 288 287 287 292 296 299 300 302 302 303 300 295 291 288 287 287 287 288 291 287 281 279 277 278 264 257 263 260 259 257 253 251
277 279 280 281 283 283 283 283 282 282 285 286 284 287 291 296 299 302 304 303 300 297 294 291 289 288 288 290 292 289 291 285 281 283 279 265 257 256 257 250 252 252 249
278 276 279 284 286 285 281 279 280 284 286 287 285 289 295 301 300 305 305 301 298 297 291 288 290 288 287 292 297 290 290 290 286 289 274 267 262 256 255 254 253 247 244
273 274 281 285 287 285 283 283 283 283 289 290 289 294 298 303 304 305 303 299 297 295 292 292 292 289 287 290 295 290 288 287 292 284 271 274 266 258 250 239 236 242 243
274 278 282 281 280 280 281 282 282 287 290 288 295 300 302 304 302 304 301 299 299 297 296 297 291 289 288 285 288 286 287 286 295 284 279 276 260 255 243 233 237 238 246
275 277 274 273 274 276 278 280 283 287 286 294 299 304 302 302 303 301 299 299 299 300 301 300 299 297 291 284 280 281 285 286 296 289 252 231 227 235 234 231 240 245 256
275 271 270 274 265 272 275 277 280 282 287 297 303 303 303 300 300 298 299 300 303 304 303 302 301 298 286 274 277 279 276 284 289 285 277 252 249 244 246 241 248 249 262
275 258 275 265 256 260 273 280 288 292 295 300 300 298 301 300 298 297 302 306 308 304 302 302 300 286 268 275 275 270 270 273 285 298 296 296 274 255 250 253 262 255 264
261 253 270 274 269 275 280 286 288 292 296 295 295 301 301 299 297 296 302 311 305 303 302 302 289 263 262 272 271 276 291 301 302 298 293 284 291 289 272 268 267 267 269
260 249 254 265 275 277 289 288 290 292 294 290 294 297 300 297 292 295 310 304 304 306 306 293 276 273 268 262 269 276 284 292 299 295 294 288 271 265 273 275 274 274 275
269 261 265 272 282 284 287 285 285 294 289 285 293 297 298 288 293 306 303 299 303 310 312 307 294 272 246 257 266 275 286 293 287 282 280 282 277 279 280 276 279 281 281
267 267 271 267 263 273 274 275 287 292 285 287 292 295 290 287 297 302 295 297 294 293 300 304 280 268 263 273 283 285 283 283 280 277 277 273 275 271 268 272 276 278 277
271 269 272 273 277 275 277 283 286 285 280 286 295 292 289 294 300 290 292 294 295 294 293 291 274 257 269 273 277 282 290 290 286 275 274 273 272 271 275 278 279 279 276
273 274 273 276 276 276 280 281 279 277 279 289 288 281 291 296 287 283 287 287 288 283 255 248 263 273 276 279 282 288 294 297 293 288 281 276 273 278 282 283 285 286 289
269 271 271 271 273 275 275 273 274 276 284 286 278 287 292 280 280 277 278 277 281 254 251 262 271 275 276 280 282 284 284 283 284 284 286 281 280 281 283 286 286 286 288
268 269 268 269 269 269 267 268 272 284 286 280 278 284 270 274 267 263 265 267 238 242 257 267 273 278 283 284 284 281 276 272 271 271 271 273 275 277 280 282 283 286 288
269 273 273 270 265 265 267 268 280 285 279 276 275 265 269 263 255 250 249 240 234 249 257 264 273 278 283 286 287 287 289 286 282 280 281 284 285 286 286 286 286 288 290
272 271 270 270 271 269 271 275 284 280 271 265 263 264 261 249 238 242 238 238 244 253 261 266 271 277 283 289 293 296 297 295 294 295 294 291 289 288 287 289 292 294 294
267 265 266 267 265 270 272 277 280 276 261 260 259 260 247 242 236 240 238 247 252 260 267 272 276 282 289 295 299 300 300 302 301 296 293 290 291 293 294 296 297 296 295
Height
5785 5782 5780 5778 5778 5778 5777 5776 5775 5775 5773 5771 5770 5769 5767 5765 5763 5762 5760 5757 5754 5751 5748 5746 5743 5740 5737 5734 5732 5730 5729 5727 5729 5729 5729 5730 5731 5729 5725 5723 5725 5727 5731
5775 5774 5772 5768 5768 5769 5768 5767 5766 5765 5763 5761 5758 5757 5755 5753 5751 5749 5748 5744 5739 5736 5732 5728 5724 5720 5716 5714 5713 5711 5710 5711 5707 5708 5711 5713 5712 5715 5712 5710 5710 5714 5715
5766 5767 5765 5762 5761 5759 5758 5757 5756 5754 5752 5750 5748 5746 5744 5742 5740 5737 5735 5731 5725 5721 5718 5713 5708 5703 5700 5697 5694 5693 5692 5692 5692 5687 5690 5692 5695 5697 5696 5695 5699 5700 5700
5755 5754 5752 5751 5750 5749 5748 5747 5746 5745 5743 5740 5738 5735 5733 5730 5727 5724 5722 5719 5714 5709 5704 5698 5692 5687 5684 5680 5677 5674 5674 5674 5673 5670 5670 5670 5674 5678 5682 5680 5679 5687 5688
5749 5747 5744 5742 5742 5742 5740 5737 5735 5734 5732 5729 5726 5723 5720 5717 5714 5710 5707 5705 5702 5695 5689 5684 5679 5673 5668 5665 5661 5659 5657 5656 5655 5654 5652 5651 5653 5658 5664 5668 5666 5669 5672
5737 5736 5734 5733 5732 5732 5729 5726 5725 5722 5719 5716 5714 5711 5708 5705 5701 5696 5692 5689 5684 5680 5675 5669 5664 5659 5654 5650 5647 5645 5643 5641 5639 5639 5637 5635 5635 5638 5644 5651 5654 5655 5660
5725 5724 5722 5720 5721 5721 5718 5715 5713 5711 5707 5705 5702 5699 5695 5691 5687 5682 5678 5674 5669 5665 5659 5653 5649 5645 5640 5637 5633 5630 5627 5625 5624 5622 5621 5619 5620 5622 5625 5632 5637 5640 5644
5713 5712 5711 5708 5708 5709 5707 5704 5701 5698 5695 5693 5690 5686 5682 5677 5673 5669 5664 5659 5654 5649 5643 5639 5635 5632 5627 5623 5619 5615 5610 5608 5608 5607 5604 5604 5606 5608 5610 5615 5620 5624 5629
5700 5699 5699 5698 5697 5697 5696 5692 5689 5686 5684 5681 5678 5673 5669 5666 5661 5656 5651 5645 5638 5633 5629 5626 5621 5618 5614 5610 5606 5601 5597 5594 5593 5591 5590 5590 5592 5596 5597 5601 5606 5610 5616
5689 5687 5688 5686 5683 5682 5682 5678 5675 5673 5671 5668 5665 5661 5657 5653 5649 5642 5637 5632 5624 5619 5615 5613 5609 5604 5602 5598 5594 5590 5585 5582 5579 5577 5575 5577 5579 5582 5584 5589 5594 5599 5604
5676 5677 5677 5672 5668 5668 5667 5665 5663 5660 5658 5655 5652 5648 5645 5640 5635 5630 5624 5619 5611 5606 5602 5599 5596 5591 5589 5586 5582 5579 5575 5572 5568 5565 5565 5566 5567 5570 5573 5578 5584 5589 5593
5665 5665 5664 5659 5655 5654 5653 5652 5650 5648 5647 5644 5640 5637 5634 5628 5623 5617 5611 5607 5599 5595 5588 5585 5580 5577 5575 5573 5570 5568 5566 5563 5559 5556 5555 5556 5559 5563 5567 5571 5576 5580 5583
5651 5652 5651 5647 5645 5643 5641 5639 5639 5638 5635 5633 5629 5625 5621 5616 5611 5605 5600 5596 5587 5583 5578 5573 5568 5565 5563 5560 5559 5559 5557 5554 5552 5549 5550 5551 5553 5557 5561 5565 5569 5573 5575
5639 5640 5639 5638 5636 5632 5629 5629 5629 5626 5625 5622 5617 5612 5609 5605 5600 5595 5590 5585 5578 5573 5568 5562 5558 5555 5553 5551 5551 5551 5550 5549 5547 5545 5545 5545 5547 5550 5554 5558 5562 5565 5567
5627 5627 5626 5627 5625 5622 5617 5617 5618 5615 5613 5610 5605 5602 5599 5594 5590 5586 5581 5575 5568 5563 5558 5553 5549 5547 5546 5545 5545 5545 5545 5543 5542 5541 5540 5541 5542 5544 5547 5551 5554 5557 5559
5616 5616 5613 5615 5613 5610 5606 5604 5606 5604 5601 5598 5594 5591 5588 5584 5580 5576 5572 5564 5559 5554 5549 5544 5542 5541 5541 5542 5541 5541 5540 5539 5539 5538 5537 5538 5538 5539 5540 5543 5546 5548 5551
5603 5601 5602 5601 5599 5598 5596 5596 5595 5593 5590 5589 5584 5581 5578 5573 5570 5568 5562 5556 5552 5548 5542 5539 5538 5538 5538 5538 5537 5538 5538 5537 5537 5536 5536 5536 5536 5537 5538 5539 5539 5540 5541
5594 5592 5591 5589 5589 5586 5586 5586 5583 5581 5580 5578 5575 5571 5568 5565 5563 5558 5553 5550 5547 5543 5539 5537 5536 5535 5535 5535 5534 5534 5534 5534 5534 5534 5534 5534 5535 5535 5535 5535 5535 5535 5536
5579 5579 5578 5578 5578 5575 5575 5574 5571 5571 5570 5568 5564 5562 5559 5556 5554 5550 5546 5544 5542 5539 5537 5535 5534 5533 5533 5532 5532 5531 5531 5530 5529 5529 5529 5530 5531 5530 5530 5530 5530 5530 5530
5565 5565 5565 5564 5563 5563 5562 5560 5560 5561 5560 5557 5554 5552 5550 5549 5546 5543 5540 5538 5536 5535 5533 5532 5531 5531 5531 5530 5530 5529 5528 5526 5526 5525 5525 5525 5525 5524 5525 5525 5525 5526 5526
5554 5554 5552 5551 5552 5553 5551 5550 5551 5551 5549 5547 5545 5544 5542 5540 5537 5536 5535 5533 5532 5531 5530 5529 5529 5529 5529 5528 5526 5525 5524 5523 5522 5521 5520 5520 5520 5520 5519 5519 5519 5519 5518
5542 5541 5541 5541 5541 5541 5541 5541 5540 5540 5538 5537 5537 5536 5534 5531 5531 5530 5529 5528 5528 5527 5528 5527 5527 5526 5525 5524 5523 5522 5521 5520 5519 5517 5517 5516 5516 5515 5514 5513 5512 5512 5510
5529 5530 5530 5530 5529 5531 5531 5531 5530 5529 5528 5528 5528 5527 5525 5524 5524 5524 5524 5524 5524 5524 5524 5524 5523 5523 5521 5520 5520 5518 5517 5516 5515 5513 5512 5511 5510 5509 5508 5506 5505 5503 5501
5519 5518 5519 5519 5520 5520 5521 5521 5520 5519 5519 5519 5518 5517 5517 5518 5518 5519 5519 5519 5520 5520 5520 5520 5519 5518 5518 5517 5516 5514 5513 5511 5510 5508 5506 5505 5503 5502 5500 5498 5496 5493 5491
5509 5510 5510 5510 5510 5511 5512 5511 5510 5511 5511 5510 5510 5510 5511 5511 5512 5513 5514 5514 5515 5516 5515 5515 5514 5513 5512 5511 5510 5508 5506 5504 5502 5500 5498 5496 5494 5492 5490 5487 5485 5482 5479
5499 5499 5499 5499 5499 5500 5501 5501 5501 5501 5502 5503 5503 5502 5503 5504 5505 5507 5508 5509 5510 5510 5510 5509 5508 5507 5505 5503 5502 5500 5498 5495 5493 5491 5489 5487 5485 5482 5479 5476 5473 5470 5466